Wenatchee, WA
on Monday, January 14, 2013

Monday
Previous Day Next Day
Daily Summary
 ActualAverageRecord
Temperature
Mean Temperature °F 27°F  
Max Temperature 27°F 33°F 53°F (1974)
Min Temperature 16°F 22°F 1°F (1971)
Degree Days
Heating Degree Days 43 38  
Month to date heating degree days 584 541  
Since 1 July heating degree days 3247 3639  
Cooling Degree Days 0 0  
Month to date cooling degree days 0 0  
Year to date cooling degree days 0 0  
Moisture
Dew Point 16°F   
Average Humidity 74    
Maximum Humidity 81    
Minimum Humidity 66    
Precipitation
Precipitation 0.04 in 0.06 in 0.52 in (1968)
Month to date precipitation 0.91 0.97  
Year to date precipitation 0.91 0.97  
Snow
Snow 0.50 in 0.50 in in ()
Month to date snowfall 11.0 8.2  
Since 1 July snowfall 41.3 33.1  
Snow Depth 5.00 in   
Wind
Wind Speed 0 mph   
Max Wind Speed 4 mph   
Max Gust Speed mph   
Visibility 10 miles   
Events     

Key: T is trace of precipitation, MM is missing value
Source: NWS Daily Summary
Time(PST)TemperatureDew PointHumidity Pressure Visibility Wind DirectionWind SpeedGust SpeedPrecipitationEvents Conditions
12:55 AM 21.0°F 15.1°F 78% 30.45 in 10.0 miles Calm Calm - N/A   Overcast
2:55 AM 21.0°F 15.1°F 78% 30.45 in 10.0 miles Calm Calm - N/A   Overcast
4:55 AM 21.0°F 15.1°F 78% 30.41 in 10.0 miles Calm Calm - N/A   Overcast
5:55 AM 21.9°F 16.0°F 78% 30.41 in 10.0 miles Calm Calm - N/A   Overcast
6:55 AM 21.9°F 15.1°F 75% 30.40 in 10.0 miles Calm Calm - N/A   Overcast
7:55 AM 19.9°F 15.1°F 81% 30.40 in 10.0 miles Calm Calm - N/A   Overcast
8:55 AM 21.9°F 16.0°F 78% 30.41 in 10.0 miles Calm Calm - N/A   Overcast
9:55 AM 23.0°F 17.1°F 78% 30.39 in 10.0 miles Calm Calm - N/A   Clear
10:55 AM 24.1°F 16.0°F 71% 30.39 in 10.0 miles Calm Calm - N/A   Clear
11:55 AM 26.1°F 17.1°F 69% 30.38 in 10.0 miles Calm Calm - N/A   Clear
12:55 PM 27.0°F 17.1°F 66% 30.36 in 10.0 miles Calm Calm - N/A   Clear
1:55 PM 28.0°F 18.0°F 66% 30.38 in 10.0 miles Calm Calm - N/A   Clear
2:55 PM 27.0°F 18.0°F 69% 30.40 in 10.0 miles Calm Calm - N/A   Clear
3:55 PM 26.1°F 17.1°F 69% 30.41 in 10.0 miles West 3.5 mph - N/A   Clear
4:55 PM 26.1°F 17.1°F 69% 30.43 in 10.0 miles Calm Calm - N/A   Clear
5:55 PM 25.0°F 17.1°F 72% 30.45 in 10.0 miles Calm Calm - N/A   Clear
6:55 PM 23.0°F 16.0°F 74% 30.45 in 10.0 miles Calm Calm - N/A   Clear
7:55 PM 21.9°F 16.0°F 78% 30.47 in 10.0 miles Calm Calm - N/A   Clear
8:55 PM 21.9°F 16.0°F 78% 30.50 in 10.0 miles Calm Calm - N/A   Clear
9:55 PM 21.9°F 16.0°F 78% 30.50 in 10.0 miles West 3.5 mph - N/A   Clear
10:55 PM 21.9°F 16.0°F 78% 30.52 in 10.0 miles WNW 3.5 mph - N/A   Clear
11:55 PM 21.0°F 15.1°F 78% 30.52 in 10.0 miles Calm Calm - N/A   Clear
Moon Phase
Jan. 14 Jan. 18 Jan. 26 Feb. 03 Feb. 10
Sunrise:07:43 AM (PST) Moon Rise:09:03 AM (PST)1/14
Sunset:04:36 PM (PST) Moon Set:08:46 PM (PST)1/14

Copyright © 2014 The Weather Underground, Inc.